Laramie, WY

4:18 AM MST on December 13, 2017 (GMT -0700)
Laramie Regional

Weather History for KLAR - October, 2014

Change the Weather History Date:

Wednesday, October 15, 2014

  Actual Average Record
Temperature  
Mean Temperature 53 °F 42 °F  
Max Temperature 74 °F 56 °F 77 °F (1958)
Min Temperature 31 °F 28 °F 8 °F (1966)
Degree Days  
Heating Degree Days 12 23  
Month to date heating degree days 280 305  
Since 1 July heating degree days 731 830  
Cooling Degree Days 0 0  
Month to date cooling degree days 0 0  
Year to date cooling degree days 67 67  
Growing Degree Days 2 (Base 50)    
Moisture  
Dew Point 21 °F    
Average Humidity 41    
Maximum Humidity 72    
Minimum Humidity 10    
Precipitation  
Precipitation 0.00 in 0.02 in 0.82 in (1980)
Month to date precipitation 0.24 0.42  
Year to date precipitation 13.10 9.68  
Sea Level Pressure  
Sea Level Pressure 29.87 in    
Wind  
Wind Speed 13 mph (SSW)    
Max Wind Speed 33 mph    
Max Gust Speed 41 mph    
Visibility 10 miles    
Events      
T = Trace of Precipitation, MM = Missing Value Source: NWS Daily Summary

Daily Weather History Graph

Daily Weather History Graph

Search for Another Location

Airport or City:

Trip Planner

Search our weather history database for the weather conditions in past years. The results will help you decide how hot, cold, wet, or windy it might be!

Date:

Astronomy

Oct. 15, 2014 Rise Set
Actual Time 7:14 AM MDT 6:21 PM MDT
Civil Twilight 6:46 AM MDT 6:49 PM MDT
Nautical Twilight 6:14 AM MDT 7:21 PM MDT
Astronomical Twilight 5:42 AM MDT 7:53 PM MDT
Moon No Moon Rise 1:59 PM MDT (10/15)
Length of Visible Light 12h 02m
Length of Day
11h 07m
Waning Gibbous, 51% of the Moon is Illuminated
Oct 15
Waning Gibbous
Oct 15
Last Quarter
Oct 23
New
Oct 30
First Quarter
Nov 6
Full

Hourly Weather History & Observations

Time (MDT) Temp. Windchill Dew Point Humidity Pressure Visibility Wind Dir Wind Speed Gust Speed Precip Events Conditions
12:53 AM 37.0 °F 30.4 °F 27.0 °F 67% 29.98 in 10.0 mi SSE 9.2 mph - N/A   Clear
1:53 AM 36.0 °F 28.5 °F 26.1 °F 67% 29.97 in 10.0 mi South 10.4 mph - N/A   Clear
2:53 AM 37.9 °F 33.5 °F 24.1 °F 57% 29.94 in 10.0 mi SSE 5.8 mph - N/A   Clear
3:53 AM 32.0 °F 27.5 °F 24.1 °F 73% 29.97 in 10.0 mi NE 4.6 mph - N/A   Clear
4:53 AM 37.0 °F 30.4 °F 21.9 °F 54% 29.94 in 10.0 mi SE 9.2 mph - N/A   Clear
5:53 AM 37.0 °F 31.6 °F 19.0 °F 48% 29.94 in 10.0 mi SE 6.9 mph - N/A   Clear
6:53 AM 32.0 °F 24.2 °F 21.0 °F 64% 30.01 in 10.0 mi SSE 9.2 mph - N/A   Clear
7:53 AM 35.1 °F 29.3 °F 21.9 °F 59% 30.00 in 10.0 mi SSE 6.9 mph - N/A   Clear
8:53 AM 50.0 °F - 26.1 °F 39% 29.93 in 10.0 mi WSW 10.4 mph - N/A   Clear
9:53 AM 55.0 °F - 23.0 °F 29% 29.91 in 10.0 mi SW 6.9 mph - N/A   Clear
10:53 AM 60.1 °F - 19.9 °F 21% 29.90 in 10.0 mi SW 5.8 mph - N/A   Clear
11:53 AM 66.0 °F - 21.9 °F 19% 29.84 in 10.0 mi SW 11.5 mph - N/A   Clear
12:53 PM 72.0 °F - 16.0 °F 12% 29.81 in 10.0 mi SW 21.9 mph 32.2 mph N/A   Clear
1:53 PM 72.0 °F - 12.0 °F 10% 29.79 in 10.0 mi SW 25.3 mph 40.3 mph N/A   Clear
2:53 PM 71.1 °F - 16.0 °F 12% 29.80 in 10.0 mi WSW 21.9 mph 29.9 mph N/A   Clear
3:53 PM 69.1 °F - 19.0 °F 15% 29.82 in 10.0 mi SW 16.1 mph - N/A   Clear
4:53 PM 68.0 °F - 19.9 °F 16% 29.78 in 10.0 mi SW 19.6 mph 28.8 mph N/A   Clear
5:53 PM 62.1 °F - 23.0 °F 22% 29.80 in 10.0 mi SW 15.0 mph - N/A   Clear
6:53 PM 57.0 °F - 23.0 °F 27% 29.84 in 10.0 mi SW 15.0 mph - N/A   Clear
7:53 PM 50.0 °F - 23.0 °F 35% 29.87 in 10.0 mi South 10.4 mph - N/A   Clear
8:53 PM 53.1 °F - 21.0 °F 29% 29.78 in 10.0 mi SW 16.1 mph 20.7 mph N/A   Clear
9:53 PM 55.0 °F - 19.0 °F 24% 29.75 in 10.0 mi SW 16.1 mph - N/A   Clear
10:53 PM 50.0 °F - 21.0 °F 32% 29.77 in 10.0 mi West 11.5 mph - N/A   Clear
11:53 PM 53.1 °F - 21.0 °F 29% 29.70 in 10.0 mi West 18.4 mph - N/A   Clear